Regional Weather Roundup
Issued by NWS

Home | Current Version | Previous Version | Graphics & Text | Print | Product List | Glossary On
Versions: 1 2 3 4 5 6 7 8 9 10 11 12 13 14 15 16 17 18 19 20 21 22 23 24 25 26 27 28 29 30 31 32 33 34 35 36 37 38 39 40 41 42 43 44 45 46 47 48 49 50
000
ASUS45 KCYS 260210
RWRWY

WYOMING REGIONAL WEATHER ROUNDUP
NATIONAL WEATHER SERVICE CHEYENNE WY
700 PM MST WED FEB 25 2015

NOTE:  "FAIR" INDICATES FEW OR NO CLOUDS BELOW 12,000 FEET
WITH NO SIGNIFICANT WEATHER AND/OR OBSTRUCTIONS TO VISIBILITY.

WYZ001-260300-
YELLOWSTONE NATIONAL PARK

CITY           SKY/WX    TMP DP  RH WIND       PRES   REMARKS
LK YELLOWSTONE   N/A     15   4  61 CALM      30.08S
W YELLOWSTONE  NOT AVBL

$$
WYZ002>013-054>058-071-098>099-260300-
NORTHERN WYOMING

CITY           SKY/WX    TMP DP  RH WIND       PRES   REMARKS
JACKSON        PTCLDY    25  16  68 N9        30.07R WCI  15
CODY           MOCLDY    14  12  92 N14       30.18S WCI  -1
GREYBULL       FAIR      21   8  57 NW24      30.20R WCI   4
WORLAND        FAIR      24  11  57 NW18      30.20R WCI  10
SHERIDAN       FLURRIES  15  10  80 NW17      30.30R WCI  -1
BUFFALO        LGT SNOW  11   8  88 N22G35    30.19R FOG     WCI  -8
GILLETTE       CLOUDY    11   6  81 N20       30.23R WCI  -7
HULETT         LGT SNOW  10   7  85 N8        30.24R WCI  -1
NEWCASTLE      CLOUDY    14   5  67 NW15G25   30.20R WCI  -1

$$
WYZ014>020-022>026-101>103-260300-
CENTRAL WYOMING

CITY           SKY/WX    TMP DP  RH WIND       PRES   REMARKS
BIG PINEY      FAIR      24  14  65 N12       30.05R WCI  13
PINEDALE       FAIR      18  10  73 NW10      30.06R WCI   6
DUBOIS         MOCLDY    21  16  79 CALM      30.04R
LANDER         CLOUDY    23  16  74 N7        30.14R WCI  15
RIVERTON       CLOUDY    22  14  71 NE17G23   30.11R WCI   8
CASPER         CLOUDY    16   9  74 N16G24    30.18R WCI   1
DOUGLAS        MIX PCPN  17   9  70 N22G36    30.17R WCI   0

$$
WYZ021-027>030-104>119-260300-
SOUTHERN WYOMING

CITY           SKY/WX    TMP DP  RH WIND       PRES   REMARKS
EVANSTON       FAIR      28  17  63 N8        30.07R WCI  20
KEMMERER       FAIR      27  14  59 CALM      30.07R
FORT BRIDGER   CLOUDY    30  18  61 N8        30.09R WCI  23
ROCK SPRINGS   LGT SNOW  21  17  84 E9        30.09R FOG     WCI  11
DIXON          CLOUDY    27  16  64 NE15G28   30.07R WCI  15
RAWLINS        CLOUDY    24  12  60 N10       30.06R WCI  14
SARATOGA       FLURRIES  21  21 100 NW7       30.05R WCI  13
LARAMIE        CLOUDY    19  16  88 W6        30.00R WCI  11
CHEYENNE       LGT SNOW  22  16  78 N25G39    30.02R WCI   5
TORRINGTON     CLOUDY    24  11  57 N20G32    30.14R WCI  10
PINE BLUFFS    LGT SNOW  27  21  80 N25G39    30.08R WCI  11

$$



USA.gov is the U.S. government's official web portal to all federal, state and local government web resources and services.